Time,TemperatureF,DewpointF,PressureIn,WindDirection,WindDirectionDegrees,WindSpeedMPH,WindSpeedGustMPH,Humidity,HourlyPrecipIn,Conditions,Clouds,dailyrainin,SoftwareType,DateUTC
2013-06-25 00:03:00,57.2,56.5,29.15,South,180,0.0,-999.0,97,0.00,,,0.00,Rainwise IP-100,2013-06-25 07:03:00,
2013-06-25 00:08:00,57.3,57.0,29.16,South,180,0.0,-999.0,97,0.00,,,0.00,Rainwise IP-100,2013-06-25 07:08:00,
2013-06-25 00:13:00,57.3,57.0,29.16,South,180,0.0,-999.0,97,0.00,,,0.00,Rainwise IP-100,2013-06-25 07:13:00,
2013-06-25 00:18:00,57.3,57.0,29.16,ENE,67,0.0,-999.0,97,0.00,,,0.00,Rainwise IP-100,2013-06-25 07:18:00,
2013-06-25 00:23:00,57.3,57.0,29.16,ENE,67,0.0,-999.0,97,0.00,,,0.00,Rainwise IP-100,2013-06-25 07:23:00,
2013-06-25 00:28:00,57.3,57.0,29.16,ENE,67,0.0,-999.0,97,0.00,,,0.00,Rainwise IP-100,2013-06-25 07:28:00,
2013-06-25 00:33:00,57.2,56.5,29.16,ENE,67,0.0,-999.0,97,0.00,,,0.00,Rainwise IP-100,2013-06-25 07:33:00,
2013-06-25 00:38:00,57.2,56.5,29.16,ESE,112,2.1,-999.0,97,0.00,,,0.00,Rainwise IP-100,2013-06-25 07:38:00,
2013-06-25 00:43:00,57.2,56.5,29.16,East,90,2.1,-999.0,97,0.00,,,0.00,Rainwise IP-100,2013-06-25 07:43:00,
2013-06-25 00:48:00,57.1,56.5,29.16,East,90,2.3,-999.0,97,0.06,,,0.01,Rainwise IP-100,2013-06-25 07:48:00,
2013-06-25 00:53:00,57.1,56.5,29.16,East,90,0.0,-999.0,97,0.06,,,0.01,Rainwise IP-100,2013-06-25 07:53:00,
2013-06-25 00:58:00,57.1,56.5,29.16,ESE,112,1.2,-999.0,97,0.00,,,0.01,Rainwise IP-100,2013-06-25 07:58:00,
2013-06-25 01:03:00,57.0,56.5,29.16,East,90,3.5,-999.0,98,0.00,,,0.01,Rainwise IP-100,2013-06-25 08:03:00,
2013-06-25 01:08:00,56.9,56.5,29.16,ESE,112,3.7,-999.0,98,0.00,,,0.01,Rainwise IP-100,2013-06-25 08:08:00,
2013-06-25 01:13:00,56.8,56.5,29.16,East,90,1.9,-999.0,98,0.00,,,0.01,Rainwise IP-100,2013-06-25 08:13:00,
2013-06-25 01:18:00,56.8,56.5,29.16,East,90,1.6,-999.0,98,0.06,,,0.02,Rainwise IP-100,2013-06-25 08:18:00,
2013-06-25 01:23:00,56.8,56.5,29.16,East,90,3.0,-999.0,98,0.06,,,0.02,Rainwise IP-100,2013-06-25 08:23:00,
2013-06-25 01:28:00,56.8,56.5,29.16,East,90,4.7,-999.0,98,0.00,,,0.02,Rainwise IP-100,2013-06-25 08:28:00,
2013-06-25 01:33:00,56.8,56.5,29.16,ENE,67,1.2,-999.0,98,0.00,,,0.02,Rainwise IP-100,2013-06-25 08:33:00,
2013-06-25 01:38:00,56.8,56.5,29.16,SSE,157,0.0,-999.0,98,0.00,,,0.02,Rainwise IP-100,2013-06-25 08:38:00,
2013-06-25 01:44:00,56.9,56.5,29.16,SSE,157,0.0,-999.0,98,0.00,,,0.02,Rainwise IP-100,2013-06-25 08:44:00,
2013-06-25 01:49:00,56.9,56.5,29.16,SSE,157,0.0,-999.0,98,0.00,,,0.02,Rainwise IP-100,2013-06-25 08:49:00,
2013-06-25 01:54:00,56.9,56.5,29.16,ESE,112,1.6,-999.0,98,0.00,,,0.02,Rainwise IP-100,2013-06-25 08:54:00,
2013-06-25 01:58:00,56.8,56.5,29.16,ESE,112,0.0,-999.0,98,0.00,,,0.02,Rainwise IP-100,2013-06-25 08:58:00,
2013-06-25 02:03:00,56.8,56.5,29.15,ESE,112,0.0,-999.0,98,0.00,,,0.02,Rainwise IP-100,2013-06-25 09:03:00,
2013-06-25 02:09:00,56.9,56.5,29.16,ESE,112,0.0,-999.0,98,0.06,,,0.03,Rainwise IP-100,2013-06-25 09:09:00,
2013-06-25 02:14:00,56.9,56.5,29.16,ESE,112,1.6,-999.0,98,0.06,,,0.03,Rainwise IP-100,2013-06-25 09:14:00,
2013-06-25 02:19:00,56.8,56.5,29.16,ESE,112,0.0,-999.0,98,0.00,,,0.03,Rainwise IP-100,2013-06-25 09:19:00,
2013-06-25 02:24:00,56.8,56.5,29.16,ESE,112,0.0,-999.0,98,0.00,,,0.03,Rainwise IP-100,2013-06-25 09:24:00,
2013-06-25 02:29:00,56.9,56.5,29.16,ESE,112,0.0,-999.0,98,0.00,,,0.03,Rainwise IP-100,2013-06-25 09:29:00,
2013-06-25 02:34:00,56.9,56.5,29.16,ESE,112,0.0,-999.0,98,0.06,,,0.04,Rainwise IP-100,2013-06-25 09:34:00,
2013-06-25 02:39:00,57.0,56.5,29.16,ESE,112,0.0,-999.0,98,0.06,,,0.04,Rainwise IP-100,2013-06-25 09:39:00,
2013-06-25 02:44:00,57.0,56.5,29.16,ESE,112,0.0,-999.0,98,0.00,,,0.05,Rainwise IP-100,2013-06-25 09:44:00,
2013-06-25 02:49:00,57.0,56.5,29.15,ESE,112,0.0,-999.0,98,0.06,,,0.05,Rainwise IP-100,2013-06-25 09:49:00,
2013-06-25 02:54:00,57.0,57.0,29.15,ESE,112,0.0,-999.0,99,0.12,,,0.06,Rainwise IP-100,2013-06-25 09:54:00,
2013-06-25 02:59:00,57.0,57.0,29.15,ESE,112,0.0,-999.0,99,0.06,,,0.06,Rainwise IP-100,2013-06-25 09:59:00,
2013-06-25 03:04:00,57.0,57.0,29.15,SSE,157,1.4,-999.0,99,0.00,,,0.06,Rainwise IP-100,2013-06-25 10:04:00,
2013-06-25 03:09:00,56.9,57.0,29.15,SSW,202,0.0,-999.0,99,0.00,,,0.06,Rainwise IP-100,2013-06-25 10:09:00,
2013-06-25 03:14:00,56.9,57.0,29.15,SSW,202,0.0,-999.0,99,0.06,,,0.07,Rainwise IP-100,2013-06-25 10:14:00,
2013-06-25 03:19:00,56.9,57.0,29.15,SSW,202,0.0,-999.0,99,0.06,,,0.07,Rainwise IP-100,2013-06-25 10:19:00,
2013-06-25 03:24:00,56.9,57.0,29.15,SSW,202,0.0,-999.0,99,0.00,,,0.07,Rainwise IP-100,2013-06-25 10:24:00,
2013-06-25 03:29:00,57.0,57.0,29.15,SSW,202,0.0,-999.0,99,0.06,,,0.08,Rainwise IP-100,2013-06-25 10:29:00,
2013-06-25 03:34:00,57.0,57.0,29.15,SSW,202,0.0,-999.0,99,0.06,,,0.08,Rainwise IP-100,2013-06-25 10:34:00,
2013-06-25 03:39:00,57.0,57.0,29.15,SSW,202,0.0,-999.0,99,0.00,,,0.08,Rainwise IP-100,2013-06-25 10:39:00,
2013-06-25 03:44:00,57.1,57.0,29.15,SSW,202,0.0,-999.0,99,0.00,,,0.08,Rainwise IP-100,2013-06-25 10:44:00,
2013-06-25 03:49:00,57.1,57.0,29.15,SSW,202,0.0,-999.0,99,0.06,,,0.09,Rainwise IP-100,2013-06-25 10:49:00,
2013-06-25 03:54:00,57.1,57.0,29.15,SSE,157,3.7,-999.0,99,0.06,,,0.09,Rainwise IP-100,2013-06-25 10:54:00,
2013-06-25 03:59:00,57.2,57.0,29.15,SSE,157,3.0,-999.0,99,0.06,,,0.10,Rainwise IP-100,2013-06-25 10:59:00,
2013-06-25 04:04:00,57.2,57.0,29.15,SSE,157,2.6,-999.0,99,0.06,,,0.10,Rainwise IP-100,2013-06-25 11:04:00,
2013-06-25 04:09:00,57.3,57.5,29.15,SSE,157,1.9,-999.0,99,0.00,,,0.10,Rainwise IP-100,2013-06-25 11:09:00,
2013-06-25 04:14:00,57.3,57.5,29.14,SSW,202,1.9,-999.0,99,0.00,,,0.10,Rainwise IP-100,2013-06-25 11:14:00,
2013-06-25 04:19:00,57.3,57.5,29.15,SSE,157,2.1,-999.0,99,0.06,,,0.11,Rainwise IP-100,2013-06-25 11:19:00,
2013-06-25 04:24:00,57.4,57.5,29.14,ESE,112,3.0,-999.0,99,0.06,,,0.11,Rainwise IP-100,2013-06-25 11:24:00,
2013-06-25 04:29:00,57.6,57.5,29.14,ESE,112,0.0,-999.0,99,0.00,,,0.11,Rainwise IP-100,2013-06-25 11:29:00,
2013-06-25 04:34:00,57.7,57.5,29.14,SSE,157,1.4,-999.0,99,0.00,,,0.11,Rainwise IP-100,2013-06-25 11:34:00,
2013-06-25 04:39:00,57.7,57.5,29.14,East,90,1.6,-999.0,99,0.00,,,0.11,Rainwise IP-100,2013-06-25 11:39:00,
2013-06-25 04:44:00,57.8,58.0,29.14,SSE,157,2.8,-999.0,99,0.06,,,0.12,Rainwise IP-100,2013-06-25 11:44:00,
2013-06-25 04:49:00,57.9,58.0,29.14,SSE,157,0.0,-999.0,99,0.06,,,0.12,Rainwise IP-100,2013-06-25 11:49:00,
2013-06-25 04:54:00,57.9,58.0,29.14,East,90,0.0,-999.0,99,0.00,,,0.12,Rainwise IP-100,2013-06-25 11:54:00,
2013-06-25 04:59:00,57.9,58.0,29.15,SSE,157,0.0,-999.0,99,0.00,,,0.12,Rainwise IP-100,2013-06-25 11:59:00,
2013-06-25 05:04:00,57.9,58.0,29.14,SSE,157,2.6,-999.0,99,0.00,,,0.12,Rainwise IP-100,2013-06-25 12:04:00,
2013-06-25 05:09:00,58.0,58.0,29.14,SSE,157,0.0,-999.0,99,0.00,,,0.12,Rainwise IP-100,2013-06-25 12:09:00,
2013-06-25 05:14:00,58.0,58.0,29.14,SW,225,2.6,-999.0,99,0.00,,,0.12,Rainwise IP-100,2013-06-25 12:14:00,
2013-06-25 05:19:00,58.0,58.0,29.15,South,180,1.2,-999.0,99,0.00,,,0.12,Rainwise IP-100,2013-06-25 12:19:00,
2013-06-25 05:24:00,58.1,58.0,29.14,South,180,2.1,-999.0,99,0.06,,,0.13,Rainwise IP-100,2013-06-25 12:24:00,
2013-06-25 05:29:00,58.1,58.0,29.15,South,180,1.4,-999.0,99,0.06,,,0.13,Rainwise IP-100,2013-06-25 12:29:00,
2013-06-25 05:34:00,58.1,58.0,29.15,SSE,157,0.0,-999.0,99,0.00,,,0.13,Rainwise IP-100,2013-06-25 12:34:00,
2013-06-25 05:39:00,58.2,58.0,29.15,SSE,157,0.0,-999.0,99,0.06,,,0.14,Rainwise IP-100,2013-06-25 12:39:00,
2013-06-25 05:44:00,58.2,58.0,29.15,SSW,202,1.2,-999.0,99,0.06,,,0.14,Rainwise IP-100,2013-06-25 12:44:00,
2013-06-25 05:49:00,58.3,58.0,29.15,East,90,0.0,-999.0,99,0.00,,,0.14,Rainwise IP-100,2013-06-25 12:49:00,
2013-06-25 05:54:00,58.3,58.0,29.15,SSE,157,0.0,-999.0,99,0.00,,,0.14,Rainwise IP-100,2013-06-25 12:54:00,
2013-06-25 05:59:00,58.5,59.0,29.15,East,90,1.2,-999.0,99,0.00,,,0.14,Rainwise IP-100,2013-06-25 12:59:00,
2013-06-25 06:04:00,58.6,59.0,29.15,ESE,112,0.0,-999.0,99,0.00,,,0.14,Rainwise IP-100,2013-06-25 13:04:00,
2013-06-25 06:09:00,58.6,59.0,29.15,SSE,157,3.0,-999.0,99,0.00,,,0.14,Rainwise IP-100,2013-06-25 13:09:00,
2013-06-25 06:14:00,58.6,59.0,29.15,SSE,157,1.2,-999.0,99,0.06,,,0.15,Rainwise IP-100,2013-06-25 13:14:00,
2013-06-25 06:19:00,58.6,59.0,29.15,South,180,2.3,-999.0,99,0.06,,,0.15,Rainwise IP-100,2013-06-25 13:19:00,
2013-06-25 06:24:00,58.8,59.0,29.15,ESE,112,0.0,-999.0,99,0.00,,,0.15,Rainwise IP-100,2013-06-25 13:24:00,
2013-06-25 06:29:00,58.9,59.0,29.15,SSE,157,0.0,-999.0,99,0.00,,,0.15,Rainwise IP-100,2013-06-25 13:29:00,
2013-06-25 06:34:00,59.0,59.0,29.15,SSE,157,0.0,-999.0,99,0.00,,,0.15,Rainwise IP-100,2013-06-25 13:34:00,
2013-06-25 06:39:00,59.0,59.0,29.15,SSW,202,2.3,-999.0,99,0.00,,,0.15,Rainwise IP-100,2013-06-25 13:39:00,
2013-06-25 06:44:00,59.0,59.0,29.15,East,90,1.9,-999.0,99,0.00,,,0.15,Rainwise IP-100,2013-06-25 13:44:00,
2013-06-25 06:49:00,59.2,59.0,29.15,SSE,157,0.0,-999.0,99,0.12,,,0.17,Rainwise IP-100,2013-06-25 13:49:00,
2013-06-25 06:54:00,59.2,59.0,29.15,East,90,5.4,-999.0,99,0.12,,,0.17,Rainwise IP-100,2013-06-25 13:54:00,
2013-06-25 06:59:00,59.2,59.0,29.15,ENE,67,3.3,-999.0,99,0.00,,,0.17,Rainwise IP-100,2013-06-25 13:59:00,
2013-06-25 07:04:00,59.3,59.0,29.16,ESE,112,3.5,-999.0,99,0.00,,,0.17,Rainwise IP-100,2013-06-25 14:04:00,
2013-06-25 07:09:00,59.4,59.0,29.16,ESE,112,0.0,-999.0,99,0.00,,,0.17,Rainwise IP-100,2013-06-25 14:09:00,
2013-06-25 07:14:00,59.5,59.0,29.16,ESE,112,0.0,-999.0,99,0.00,,,0.17,Rainwise IP-100,2013-06-25 14:14:00,
2013-06-25 07:19:00,59.6,59.0,29.16,ESE,112,1.9,-999.0,99,0.00,,,0.17,Rainwise IP-100,2013-06-25 14:19:00,
2013-06-25 07:24:00,59.8,59.5,29.16,East,90,2.1,-999.0,99,0.00,,,0.17,Rainwise IP-100,2013-06-25 14:24:00,
2013-06-25 07:29:00,60.0,59.5,29.16,ESE,112,2.8,-999.0,99,0.00,,,0.17,Rainwise IP-100,2013-06-25 14:29:00,
2013-06-25 07:34:00,60.1,59.5,29.17,ENE,67,3.7,-999.0,99,0.06,,,0.18,Rainwise IP-100,2013-06-25 14:34:00,
2013-06-25 07:39:00,60.1,59.5,29.16,ENE,67,3.0,-999.0,99,0.06,,,0.18,Rainwise IP-100,2013-06-25 14:39:00,
2013-06-25 07:44:00,60.2,59.5,29.16,East,90,3.0,-999.0,99,0.00,,,0.18,Rainwise IP-100,2013-06-25 14:44:00,
2013-06-25 07:49:00,60.2,59.5,29.16,East,90,2.3,-999.0,99,0.00,,,0.18,Rainwise IP-100,2013-06-25 14:49:00,
2013-06-25 07:54:00,60.2,59.5,29.17,ENE,67,4.0,-999.0,98,0.00,,,0.18,Rainwise IP-100,2013-06-25 14:54:00,
2013-06-25 07:59:00,60.6,60.0,29.17,ENE,67,2.1,-999.0,98,0.00,,,0.18,Rainwise IP-100,2013-06-25 14:59:00,
2013-06-25 08:04:00,60.8,60.5,29.17,East,90,2.6,-999.0,98,0.00,,,0.18,Rainwise IP-100,2013-06-25 15:04:00,
2013-06-25 08:09:00,60.8,60.0,29.17,ESE,112,1.9,-999.0,97,0.00,,,0.18,Rainwise IP-100,2013-06-25 15:09:00,
2013-06-25 08:14:00,61.0,60.0,29.17,ESE,112,3.3,-999.0,97,0.00,,,0.18,Rainwise IP-100,2013-06-25 15:14:00,
2013-06-25 08:19:00,61.1,60.0,29.17,East,90,2.6,-999.0,97,0.00,,,0.18,Rainwise IP-100,2013-06-25 15:19:00,
2013-06-25 08:24:00,61.0,60.0,29.17,East,90,0.0,-999.0,97,0.00,,,0.18,Rainwise IP-100,2013-06-25 15:24:00,
2013-06-25 08:29:00,61.2,60.0,29.17,ENE,67,1.6,-999.0,97,0.06,,,0.19,Rainwise IP-100,2013-06-25 15:29:00,
2013-06-25 08:34:00,61.6,60.5,29.17,ESE,112,4.2,-999.0,97,0.06,,,0.19,Rainwise IP-100,2013-06-25 15:34:00,
2013-06-25 08:39:00,61.7,60.5,29.17,East,90,4.2,-999.0,97,0.00,,,0.19,Rainwise IP-100,2013-06-25 15:39:00,
2013-06-25 08:44:00,61.9,61.0,29.18,ENE,67,2.6,-999.0,97,0.00,,,0.19,Rainwise IP-100,2013-06-25 15:44:00,
2013-06-25 08:49:00,62.2,61.0,29.18,ENE,67,5.1,-999.0,97,0.00,,,0.19,Rainwise IP-100,2013-06-25 15:49:00,
2013-06-25 08:54:00,62.3,61.5,29.18,SE,135,0.0,-999.0,97,0.00,,,0.19,Rainwise IP-100,2013-06-25 15:54:00,
2013-06-25 08:59:00,62.4,61.5,29.18,ENE,67,1.9,-999.0,97,0.00,,,0.19,Rainwise IP-100,2013-06-25 15:59:00,
2013-06-25 09:04:00,62.4,61.5,29.17,ENE,67,3.3,-999.0,97,0.00,,,0.19,Rainwise IP-100,2013-06-25 16:04:00,
2013-06-25 09:09:00,62.4,61.5,29.18,East,90,4.7,-999.0,96,0.00,,,0.19,Rainwise IP-100,2013-06-25 16:09:00,
2013-06-25 09:14:00,62.6,61.5,29.18,East,90,5.4,-999.0,96,0.00,,,0.19,Rainwise IP-100,2013-06-25 16:14:00,
2013-06-25 09:19:00,62.7,61.0,29.18,East,90,4.9,-999.0,95,0.00,,,0.19,Rainwise IP-100,2013-06-25 16:19:00,
2013-06-25 09:24:00,62.8,61.5,29.18,East,90,4.0,-999.0,95,0.00,,,0.19,Rainwise IP-100,2013-06-25 16:24:00,
2013-06-25 09:29:00,63.1,61.5,29.18,ENE,67,1.2,-999.0,95,0.00,,,0.19,Rainwise IP-100,2013-06-25 16:29:00,
2013-06-25 09:34:00,63.3,62.0,29.19,ENE,67,4.7,-999.0,95,0.00,,,0.19,Rainwise IP-100,2013-06-25 16:34:00,
2013-06-25 09:39:00,63.4,62.0,29.19,ESE,112,2.8,-999.0,95,0.00,,,0.19,Rainwise IP-100,2013-06-25 16:39:00,
2013-06-25 09:44:00,63.4,61.5,29.19,SSE,157,0.0,-999.0,94,0.00,,,0.19,Rainwise IP-100,2013-06-25 16:44:00,
2013-06-25 09:49:00,63.5,61.5,29.19,SSW,202,0.0,-999.0,94,0.00,,,0.19,Rainwise IP-100,2013-06-25 16:49:00,
2013-06-25 09:54:00,63.6,62.0,29.19,SSE,157,2.1,-999.0,95,0.00,,,0.19,Rainwise IP-100,2013-06-25 16:54:00,
2013-06-25 09:59:00,63.7,61.5,29.19,ESE,112,0.0,-999.0,94,0.06,,,0.20,Rainwise IP-100,2013-06-25 16:59:00,
2013-06-25 10:04:00,63.6,61.5,29.20,East,90,0.0,-999.0,94,0.06,,,0.20,Rainwise IP-100,2013-06-25 17:04:00,
2013-06-25 10:09:00,63.5,61.5,29.20,ENE,67,1.9,-999.0,94,0.00,,,0.20,Rainwise IP-100,2013-06-25 17:09:00,
2013-06-25 10:14:00,63.5,61.5,29.20,East,90,4.2,-999.0,94,0.00,,,0.20,Rainwise IP-100,2013-06-25 17:14:00,
2013-06-25 10:19:00,63.4,62.0,29.20,ENE,67,5.4,-999.0,95,0.00,,,0.20,Rainwise IP-100,2013-06-25 17:19:00,
2013-06-25 10:24:00,63.4,62.0,29.19,SSE,157,0.0,-999.0,95,0.00,,,0.20,Rainwise IP-100,2013-06-25 17:24:00,
2013-06-25 10:29:00,63.5,62.0,29.20,East,90,0.0,-999.0,95,0.00,,,0.20,Rainwise IP-100,2013-06-25 17:29:00,
2013-06-25 10:34:00,63.6,62.0,29.20,ESE,112,1.9,-999.0,95,0.00,,,0.20,Rainwise IP-100,2013-06-25 17:34:00,
2013-06-25 10:39:00,63.5,62.0,29.20,East,90,4.2,-999.0,95,0.00,,,0.20,Rainwise IP-100,2013-06-25 17:39:00,
2013-06-25 10:44:00,63.3,62.5,29.20,East,90,3.0,-999.0,96,0.00,,,0.20,Rainwise IP-100,2013-06-25 17:44:00,
2013-06-25 10:49:00,63.4,62.5,29.20,SSW,202,0.0,-999.0,96,0.00,,,0.20,Rainwise IP-100,2013-06-25 17:49:00,
2013-06-25 10:54:00,63.5,62.5,29.20,South,180,3.5,-999.0,96,0.06,,,0.21,Rainwise IP-100,2013-06-25 17:54:00,
2013-06-25 10:59:00,63.7,62.5,29.20,SSE,157,2.3,-999.0,96,0.06,,,0.21,Rainwise IP-100,2013-06-25 17:59:00,
2013-06-25 11:04:00,63.8,62.5,29.20,SSE,157,1.6,-999.0,95,0.00,,,0.21,Rainwise IP-100,2013-06-25 18:04:00,
2013-06-25 11:09:00,63.8,62.5,29.20,East,90,2.8,-999.0,95,0.06,,,0.22,Rainwise IP-100,2013-06-25 18:09:00,
2013-06-25 11:14:00,63.9,62.5,29.21,SSE,157,3.0,-999.0,95,0.06,,,0.22,Rainwise IP-100,2013-06-25 18:14:00,
2013-06-25 11:19:00,63.7,62.0,29.21,East,90,1.4,-999.0,95,0.00,,,0.22,Rainwise IP-100,2013-06-25 18:19:00,
2013-06-25 11:24:00,63.7,62.0,29.21,SE,135,0.0,-999.0,95,0.06,,,0.23,Rainwise IP-100,2013-06-25 18:24:00,
2013-06-25 11:29:00,64.0,62.5,29.21,SSE,157,1.9,-999.0,95,0.06,,,0.23,Rainwise IP-100,2013-06-25 18:29:00,
2013-06-25 11:34:00,64.1,62.5,29.21,SSE,157,3.3,-999.0,95,0.06,,,0.24,Rainwise IP-100,2013-06-25 18:34:00,
2013-06-25 11:39:00,64.0,62.5,29.22,South,180,3.3,-999.0,95,0.06,,,0.24,Rainwise IP-100,2013-06-25 18:39:00,
2013-06-25 11:44:00,63.9,62.5,29.22,SSE,157,2.3,-999.0,95,0.06,,,0.25,Rainwise IP-100,2013-06-25 18:44:00,
2013-06-25 11:49:00,64.0,62.5,29.22,SSW,202,2.8,-999.0,95,0.06,,,0.25,Rainwise IP-100,2013-06-25 18:49:00,
2013-06-25 11:54:00,64.2,62.5,29.22,SSE,157,0.0,-999.0,95,0.00,,,0.25,Rainwise IP-100,2013-06-25 18:54:00,
2013-06-25 11:59:00,64.5,63.0,29.22,SSW,202,2.8,-999.0,95,0.00,,,0.25,Rainwise IP-100,2013-06-25 18:59:00,
2013-06-25 12:04:00,64.8,63.5,29.22,SE,135,0.0,-999.0,95,0.00,,,0.25,Rainwise IP-100,2013-06-25 19:04:00,
2013-06-25 12:09:00,65.0,63.5,29.22,SE,135,1.9,-999.0,95,0.00,,,0.25,Rainwise IP-100,2013-06-25 19:09:00,
2013-06-25 12:14:00,65.2,63.5,29.22,East,90,2.8,-999.0,95,0.00,,,0.25,Rainwise IP-100,2013-06-25 19:14:00,
2013-06-25 12:19:00,65.4,64.0,29.22,SSE,157,5.6,-999.0,95,0.00,,,0.25,Rainwise IP-100,2013-06-25 19:19:00,
2013-06-25 12:24:00,65.5,64.0,29.22,SSW,202,3.0,-999.0,95,0.00,,,0.25,Rainwise IP-100,2013-06-25 19:24:00,
2013-06-25 12:29:00,65.8,64.0,29.23,SSE,157,1.9,-999.0,94,0.06,,,0.26,Rainwise IP-100,2013-06-25 19:29:00,
2013-06-25 12:34:00,66.2,64.5,29.23,SSE,157,5.4,-999.0,94,0.06,,,0.26,Rainwise IP-100,2013-06-25 19:34:00,
2013-06-25 12:39:00,66.2,64.0,29.23,SSW,202,0.0,-999.0,93,0.00,,,0.26,Rainwise IP-100,2013-06-25 19:39:00,
2013-06-25 12:44:00,66.1,63.5,29.23,WSW,247,4.4,-999.0,92,0.00,,,0.26,Rainwise IP-100,2013-06-25 19:44:00,
2013-06-25 12:49:00,66.1,63.5,29.23,South,180,2.8,-999.0,92,0.00,,,0.26,Rainwise IP-100,2013-06-25 19:49:00,
2013-06-25 12:54:00,66.1,63.5,29.23,SSW,202,0.0,-999.0,92,0.00,,,0.26,Rainwise IP-100,2013-06-25 19:54:00,
2013-06-25 12:59:00,66.6,64.5,29.23,South,180,1.9,-999.0,92,0.00,,,0.26,Rainwise IP-100,2013-06-25 19:59:00,
2013-06-25 13:04:00,67.1,64.5,29.23,SSW,202,4.2,-999.0,91,0.00,,,0.26,Rainwise IP-100,2013-06-25 20:04:00,
2013-06-25 13:09:00,67.1,64.0,29.23,SSW,202,3.3,-999.0,90,0.00,,,0.26,Rainwise IP-100,2013-06-25 20:09:00,
2013-06-25 13:14:00,66.9,64.0,29.23,WSW,247,2.3,-999.0,90,0.00,,,0.26,Rainwise IP-100,2013-06-25 20:14:00,
2013-06-25 13:19:00,66.8,63.5,29.24,WSW,247,1.6,-999.0,90,0.00,,,0.26,Rainwise IP-100,2013-06-25 20:19:00,
2013-06-25 13:24:00,67.0,64.0,29.24,SSW,202,0.0,-999.0,90,0.00,,,0.26,Rainwise IP-100,2013-06-25 20:24:00,
2013-06-25 13:29:00,67.1,64.0,29.23,WSW,247,3.7,-999.0,90,0.00,,,0.26,Rainwise IP-100,2013-06-25 20:29:00,
2013-06-25 13:34:00,67.0,64.0,29.24,WSW,247,4.7,-999.0,90,0.00,,,0.26,Rainwise IP-100,2013-06-25 20:34:00,
2013-06-25 13:39:00,66.8,63.5,29.24,SSW,202,1.6,-999.0,90,0.06,,,0.27,Rainwise IP-100,2013-06-25 20:39:00,
2013-06-25 13:44:00,66.9,64.5,29.23,SSE,157,3.5,-999.0,91,0.06,,,0.27,Rainwise IP-100,2013-06-25 20:44:00,
2013-06-25 13:49:00,67.2,64.5,29.23,SSE,157,5.1,-999.0,91,0.00,,,0.27,Rainwise IP-100,2013-06-25 20:49:00,
2013-06-25 13:54:00,67.0,64.0,29.23,SW,225,3.3,-999.0,90,0.00,,,0.27,Rainwise IP-100,2013-06-25 20:54:00,
2013-06-25 13:59:00,66.8,63.5,29.23,South,180,1.6,-999.0,89,0.00,,,0.27,Rainwise IP-100,2013-06-25 20:59:00,
2013-06-25 14:04:00,66.9,64.0,29.23,SW,225,3.7,-999.0,90,0.00,,,0.27,Rainwise IP-100,2013-06-25 21:04:00,
2013-06-25 14:09:00,67.1,64.0,29.23,South,180,3.5,-999.0,90,0.00,,,0.27,Rainwise IP-100,2013-06-25 21:09:00,
2013-06-25 14:14:00,67.0,64.0,29.23,WSW,247,1.2,-999.0,89,0.00,,,0.27,Rainwise IP-100,2013-06-25 21:14:00,
2013-06-25 14:19:00,67.2,64.0,29.22,SSE,157,5.6,-999.0,90,0.00,,,0.27,Rainwise IP-100,2013-06-25 21:19:00,
2013-06-25 14:24:00,67.6,64.5,29.22,WSW,247,3.7,-999.0,90,0.00,,,0.27,Rainwise IP-100,2013-06-25 21:24:00,
2013-06-25 14:29:00,68.2,64.5,29.23,SSW,202,2.8,-999.0,89,0.00,,,0.27,Rainwise IP-100,2013-06-25 21:29:00,
2013-06-25 14:34:00,68.8,65.0,29.23,SW,225,2.1,-999.0,88,0.00,,,0.27,Rainwise IP-100,2013-06-25 21:34:00,
2013-06-25 14:39:00,69.2,65.5,29.23,SSW,202,4.9,-999.0,87,0.00,,,0.27,Rainwise IP-100,2013-06-25 21:39:00,
2013-06-25 14:44:00,69.4,65.5,29.23,SSW,202,2.8,-999.0,87,0.00,,,0.27,Rainwise IP-100,2013-06-25 21:44:00,
2013-06-25 14:49:00,69.1,65.0,29.23,SSW,202,3.3,-999.0,87,0.00,,,0.27,Rainwise IP-100,2013-06-25 21:49:00,
2013-06-25 14:54:00,68.7,64.5,29.23,SSW,202,1.4,-999.0,87,0.00,,,0.27,Rainwise IP-100,2013-06-25 21:54:00,
2013-06-25 14:59:00,68.8,65.0,29.23,SSW,202,1.4,-999.0,87,0.00,,,0.27,Rainwise IP-100,2013-06-25 21:59:00,
2013-06-25 15:04:00,69.4,65.0,29.23,SW,225,4.4,-999.0,86,0.00,,,0.27,Rainwise IP-100,2013-06-25 22:04:00,
2013-06-25 15:09:00,69.4,64.5,29.23,SSW,202,1.9,-999.0,85,0.00,,,0.27,Rainwise IP-100,2013-06-25 22:09:00,
2013-06-25 15:14:00,68.9,64.0,29.23,SW,225,2.3,-999.0,85,0.00,,,0.27,Rainwise IP-100,2013-06-25 22:14:00,
2013-06-25 15:19:00,68.8,64.5,29.23,SSE,157,4.2,-999.0,86,0.00,,,0.27,Rainwise IP-100,2013-06-25 22:19:00,
2013-06-25 15:24:00,69.1,64.5,29.23,SSW,202,6.5,-999.0,86,0.00,,,0.27,Rainwise IP-100,2013-06-25 22:24:00,
2013-06-25 15:29:00,69.6,64.5,29.23,SSW,202,1.2,-999.0,84,0.00,,,0.27,Rainwise IP-100,2013-06-25 22:29:00,
2013-06-25 15:34:00,69.5,64.5,29.23,SW,225,3.3,-999.0,83,0.00,,,0.27,Rainwise IP-100,2013-06-25 22:34:00,
2013-06-25 15:39:00,69.1,63.5,29.23,SSE,157,4.0,-999.0,83,0.00,,,0.27,Rainwise IP-100,2013-06-25 22:39:00,
2013-06-25 15:44:00,68.9,63.5,29.23,SSW,202,3.3,-999.0,83,0.00,,,0.27,Rainwise IP-100,2013-06-25 22:44:00,
2013-06-25 15:49:00,68.9,64.0,29.23,SSW,202,4.4,-999.0,84,0.00,,,0.27,Rainwise IP-100,2013-06-25 22:49:00,
2013-06-25 15:54:00,69.2,64.0,29.23,SW,225,4.4,-999.0,84,0.00,,,0.27,Rainwise IP-100,2013-06-25 22:54:00,
2013-06-25 15:59:00,69.8,64.5,29.23,SSW,202,1.9,-999.0,83,0.00,,,0.27,Rainwise IP-100,2013-06-25 22:59:00,
2013-06-25 16:04:00,69.7,64.5,29.22,SSW,202,4.2,-999.0,83,0.00,,,0.27,Rainwise IP-100,2013-06-25 23:04:00,
2013-06-25 16:09:00,69.7,64.5,29.22,SSW,202,2.6,-999.0,83,0.00,,,0.27,Rainwise IP-100,2013-06-25 23:09:00,
2013-06-25 16:14:00,70.2,64.5,29.23,WSW,247,5.6,-999.0,82,0.00,,,0.27,Rainwise IP-100,2013-06-25 23:14:00,
2013-06-25 16:19:00,70.7,64.0,29.22,SW,225,2.1,-999.0,80,0.00,,,0.27,Rainwise IP-100,2013-06-25 23:19:00,
2013-06-25 16:24:00,70.8,64.0,29.22,SSE,157,2.3,-999.0,79,0.00,,,0.27,Rainwise IP-100,2013-06-25 23:24:00,
2013-06-25 16:29:00,70.4,63.5,29.23,West,270,3.3,-999.0,79,0.00,,,0.27,Rainwise IP-100,2013-06-25 23:29:00,
2013-06-25 16:34:00,70.5,63.5,29.22,SSW,202,5.4,-999.0,79,0.00,,,0.27,Rainwise IP-100,2013-06-25 23:34:00,
2013-06-25 16:39:00,70.3,63.5,29.23,WSW,247,3.0,-999.0,79,0.00,,,0.27,Rainwise IP-100,2013-06-25 23:39:00,
2013-06-25 16:44:00,70.0,63.5,29.23,SSE,157,3.5,-999.0,80,0.00,,,0.27,Rainwise IP-100,2013-06-25 23:44:00,
2013-06-25 16:49:00,69.6,63.0,29.22,WNW,292,2.8,-999.0,80,0.00,,,0.27,Rainwise IP-100,2013-06-25 23:49:00,
2013-06-25 16:54:00,69.6,63.0,29.22,SSE,157,6.3,-999.0,80,0.00,,,0.27,Rainwise IP-100,2013-06-25 23:54:00,
2013-06-25 16:59:00,69.6,63.0,29.22,SSE,157,5.4,-999.0,79,0.00,,,0.27,Rainwise IP-100,2013-06-25 23:59:00,
2013-06-25 17:04:00,68.7,62.0,29.22,SSE,157,2.8,-999.0,80,0.00,,,0.27,Rainwise IP-100,2013-06-26 00:04:00,
2013-06-25 17:09:00,68.4,62.5,29.22,SSE,157,5.4,-999.0,81,0.00,,,0.27,Rainwise IP-100,2013-06-26 00:09:00,
2013-06-25 17:14:00,68.4,62.5,29.22,SSE,157,2.3,-999.0,81,0.00,,,0.27,Rainwise IP-100,2013-06-26 00:14:00,
2013-06-25 17:19:00,68.1,62.5,29.22,ESE,112,1.6,-999.0,82,0.00,,,0.27,Rainwise IP-100,2013-06-26 00:19:00,
2013-06-25 17:24:00,68.2,62.5,29.22,South,180,2.8,-999.0,83,0.00,,,0.27,Rainwise IP-100,2013-06-26 00:24:00,
2013-06-25 17:29:00,68.9,63.0,29.22,SSE,157,7.0,-999.0,82,0.00,,,0.27,Rainwise IP-100,2013-06-26 00:29:00,
2013-06-25 17:34:00,69.6,63.0,29.22,SSE,157,8.2,-999.0,80,0.00,,,0.27,Rainwise IP-100,2013-06-26 00:34:00,
2013-06-25 17:39:00,69.6,63.0,29.22,SSE,157,6.8,-999.0,79,0.00,,,0.27,Rainwise IP-100,2013-06-26 00:39:00,
2013-06-25 17:44:00,69.1,62.0,29.22,SSE,157,4.7,-999.0,79,0.00,,,0.27,Rainwise IP-100,2013-06-26 00:44:00,
2013-06-25 17:49:00,68.4,62.5,29.22,South,180,3.7,-999.0,81,0.00,,,0.27,Rainwise IP-100,2013-06-26 00:49:00,
2013-06-25 17:54:00,68.0,62.5,29.22,ENE,67,2.6,-999.0,83,0.00,,,0.27,Rainwise IP-100,2013-06-26 00:54:00,
2013-06-25 17:59:00,68.4,63.0,29.21,SSE,157,2.6,-999.0,83,0.00,,,0.27,Rainwise IP-100,2013-06-26 00:59:00,
2013-06-25 18:04:00,69.1,63.5,29.22,SE,135,6.3,-999.0,83,0.00,,,0.27,Rainwise IP-100,2013-06-26 01:04:00,
2013-06-25 18:09:00,69.4,63.0,29.22,SSW,202,7.2,-999.0,80,0.00,,,0.27,Rainwise IP-100,2013-06-26 01:09:00,
2013-06-25 18:14:00,69.2,62.5,29.22,SSW,202,7.9,-999.0,79,0.00,,,0.27,Rainwise IP-100,2013-06-26 01:14:00,
2013-06-25 18:19:00,69.1,62.5,29.21,South,180,6.1,-999.0,80,0.00,,,0.27,Rainwise IP-100,2013-06-26 01:19:00,
2013-06-25 18:24:00,69.5,63.0,29.21,SSE,157,2.8,-999.0,79,0.00,,,0.27,Rainwise IP-100,2013-06-26 01:24:00,
2013-06-25 18:29:00,69.3,62.5,29.21,SSE,157,7.9,-999.0,79,0.00,,,0.27,Rainwise IP-100,2013-06-26 01:29:00,
2013-06-25 18:34:00,68.6,61.5,29.21,SSE,157,5.8,-999.0,79,0.00,,,0.27,Rainwise IP-100,2013-06-26 01:34:00,
2013-06-25 18:39:00,68.2,61.5,29.21,SSE,157,9.1,-999.0,80,0.00,,,0.27,Rainwise IP-100,2013-06-26 01:39:00,
2013-06-25 18:44:00,68.2,61.5,29.21,SSE,157,11.2,-999.0,80,0.00,,,0.27,Rainwise IP-100,2013-06-26 01:44:00,
2013-06-25 18:49:00,68.1,61.5,29.21,SSE,157,7.7,-999.0,80,0.00,,,0.27,Rainwise IP-100,2013-06-26 01:49:00,
2013-06-25 18:54:00,68.0,62.0,29.21,ESE,112,2.6,-999.0,81,0.00,,,0.27,Rainwise IP-100,2013-06-26 01:54:00,
2013-06-25 18:59:00,67.8,62.0,29.21,South,180,2.8,-999.0,81,0.00,,,0.27,Rainwise IP-100,2013-06-26 01:59:00,
2013-06-25 19:04:00,67.6,61.5,29.21,SSE,157,6.8,-999.0,81,0.00,,,0.27,Rainwise IP-100,2013-06-26 02:04:00,
2013-06-25 19:09:00,67.4,61.5,29.21,SSW,202,5.4,-999.0,81,0.00,,,0.27,Rainwise IP-100,2013-06-26 02:09:00,
2013-06-25 19:14:00,67.2,61.0,29.21,SSE,157,4.0,-999.0,81,0.00,,,0.27,Rainwise IP-100,2013-06-26 02:14:00,
2013-06-25 19:19:00,67.2,61.5,29.21,SSE,157,5.1,-999.0,82,0.00,,,0.27,Rainwise IP-100,2013-06-26 02:19:00,
2013-06-25 19:24:00,67.0,61.5,29.21,SSE,157,4.4,-999.0,82,0.00,,,0.27,Rainwise IP-100,2013-06-26 02:24:00,
2013-06-25 19:29:00,66.7,61.0,29.21,SSW,202,5.4,-999.0,82,0.00,,,0.27,Rainwise IP-100,2013-06-26 02:29:00,
2013-06-25 19:34:00,66.5,61.5,29.22,South,180,2.8,-999.0,83,0.00,,,0.27,Rainwise IP-100,2013-06-26 02:34:00,
2013-06-25 19:39:00,66.3,61.0,29.22,SSE,157,3.3,-999.0,83,0.00,,,0.27,Rainwise IP-100,2013-06-26 02:39:00,
2013-06-25 19:44:00,66.1,60.5,29.21,SSW,202,4.7,-999.0,83,0.00,,,0.27,Rainwise IP-100,2013-06-26 02:44:00,
2013-06-25 19:49:00,66.0,61.0,29.22,SSE,157,4.2,-999.0,84,0.00,,,0.27,Rainwise IP-100,2013-06-26 02:49:00,
2013-06-25 19:54:00,65.9,61.0,29.22,SSE,157,4.4,-999.0,84,0.00,,,0.27,Rainwise IP-100,2013-06-26 02:54:00,
2013-06-25 19:59:00,65.7,61.0,29.22,SSW,202,2.3,-999.0,85,0.00,,,0.27,Rainwise IP-100,2013-06-26 02:59:00,
2013-06-25 20:04:00,65.5,61.0,29.22,SSW,202,3.3,-999.0,85,0.00,,,0.27,Rainwise IP-100,2013-06-26 03:04:00,
2013-06-25 20:09:00,65.4,61.0,29.22,SSE,157,4.7,-999.0,85,0.00,,,0.27,Rainwise IP-100,2013-06-26 03:09:00,
2013-06-25 20:14:00,65.3,61.0,29.22,SSE,157,3.7,-999.0,86,0.00,,,0.27,Rainwise IP-100,2013-06-26 03:14:00,
2013-06-25 20:19:00,65.1,60.5,29.22,SSE,157,3.0,-999.0,86,0.00,,,0.27,Rainwise IP-100,2013-06-26 03:19:00,
2013-06-25 20:24:00,64.9,61.0,29.22,SSE,157,3.5,-999.0,87,0.00,,,0.27,Rainwise IP-100,2013-06-26 03:24:00,
2013-06-25 20:29:00,64.7,60.5,29.22,SSE,157,0.0,-999.0,87,0.00,,,0.27,Rainwise IP-100,2013-06-26 03:29:00,
2013-06-25 20:34:00,64.5,60.5,29.22,SSE,157,1.2,-999.0,87,0.00,,,0.27,Rainwise IP-100,2013-06-26 03:34:00,
2013-06-25 20:39:00,64.5,60.5,29.22,SSE,157,0.0,-999.0,87,0.00,,,0.27,Rainwise IP-100,2013-06-26 03:39:00,
2013-06-25 20:44:00,64.4,60.5,29.22,South,180,0.0,-999.0,87,0.00,,,0.27,Rainwise IP-100,2013-06-26 03:44:00,
2013-06-25 20:49:00,64.3,61.0,29.22,SSE,157,1.6,-999.0,88,0.00,,,0.27,Rainwise IP-100,2013-06-26 03:49:00,
2013-06-25 20:54:00,64.1,60.5,29.22,SSE,157,0.0,-999.0,88,0.00,,,0.27,Rainwise IP-100,2013-06-26 03:54:00,
2013-06-25 20:59:00,63.8,60.5,29.22,SSE,157,0.0,-999.0,89,0.00,,,0.27,Rainwise IP-100,2013-06-26 03:59:00,
2013-06-25 21:01:00,63.7,60.5,29.22,SSE,157,0.0,-999.0,89,0.00,,,0.27,Rainwise IP-100,2013-06-26 04:01:00,
2013-06-25 21:06:00,63.6,60.5,29.22,SSE,157,0.0,-999.0,90,0.00,,,0.27,Rainwise IP-100,2013-06-26 04:06:00,
2013-06-25 21:09:00,63.6,60.5,29.22,SSE,157,0.0,-999.0,90,0.00,,,0.27,Rainwise IP-100,2013-06-26 04:09:00,
2013-06-25 21:14:00,63.5,61.0,29.22,SSE,157,0.0,-999.0,91,0.00,,,0.27,Rainwise IP-100,2013-06-26 04:14:00,
2013-06-25 21:19:00,63.3,61.0,29.22,SSE,157,0.0,-999.0,91,0.00,,,0.27,Rainwise IP-100,2013-06-26 04:19:00,
2013-06-25 21:24:00,63.3,61.0,29.23,SSE,157,0.0,-999.0,91,0.00,,,0.27,Rainwise IP-100,2013-06-26 04:24:00,
2013-06-25 21:29:00,63.4,61.0,29.22,SSE,157,0.0,-999.0,92,0.00,,,0.27,Rainwise IP-100,2013-06-26 04:29:00,
2013-06-25 21:34:00,63.5,61.0,29.23,ESE,112,1.4,-999.0,92,0.00,,,0.27,Rainwise IP-100,2013-06-26 04:34:00,
2013-06-25 21:39:00,63.5,61.0,29.23,East,90,3.0,-999.0,92,0.00,,,0.27,Rainwise IP-100,2013-06-26 04:39:00,
2013-06-25 21:44:00,63.5,61.0,29.23,ENE,67,1.2,-999.0,92,0.00,,,0.27,Rainwise IP-100,2013-06-26 04:44:00,
2013-06-25 21:49:00,63.4,61.0,29.23,ENE,67,0.0,-999.0,92,0.00,,,0.27,Rainwise IP-100,2013-06-26 04:49:00,
2013-06-25 21:54:00,63.3,61.0,29.23,ENE,67,0.0,-999.0,92,0.00,,,0.27,Rainwise IP-100,2013-06-26 04:54:00,
2013-06-25 21:59:00,63.3,61.0,29.23,ENE,67,1.4,-999.0,92,0.00,,,0.27,Rainwise IP-100,2013-06-26 04:59:00,
2013-06-25 22:04:00,63.4,61.5,29.23,ENE,67,0.0,-999.0,93,0.00,,,0.27,Rainwise IP-100,2013-06-26 05:04:00,
2013-06-25 22:09:00,63.5,61.0,29.23,ENE,67,0.0,-999.0,92,0.00,,,0.27,Rainwise IP-100,2013-06-26 05:09:00,
2013-06-25 22:14:00,63.7,61.0,29.24,SSE,157,1.6,-999.0,92,0.00,,,0.27,Rainwise IP-100,2013-06-26 05:14:00,
2013-06-25 22:19:00,63.7,61.0,29.24,WSW,247,0.0,-999.0,91,0.00,,,0.27,Rainwise IP-100,2013-06-26 05:19:00,
2013-06-25 22:24:00,63.7,61.0,29.24,ESE,112,1.6,-999.0,91,0.00,,,0.27,Rainwise IP-100,2013-06-26 05:24:00,
2013-06-25 22:29:00,63.7,61.0,29.24,SSW,202,1.2,-999.0,91,0.00,,,0.27,Rainwise IP-100,2013-06-26 05:29:00,
2013-06-25 22:30:00,63.7,61.0,29.24,SSW,202,0.0,-999.0,91,0.00,,,0.27,Rainwise IP-100,2013-06-26 05:30:00,
2013-06-25 22:35:00,63.8,61.0,29.24,SSE,157,2.3,-999.0,90,0.00,,,0.27,Rainwise IP-100,2013-06-26 05:35:00,
2013-06-25 22:40:00,63.9,61.0,29.24,SSE,157,0.0,-999.0,90,0.00,,,0.27,Rainwise IP-100,2013-06-26 05:40:00,
2013-06-25 22:45:00,63.9,61.0,29.24,SSE,157,3.3,-999.0,90,0.00,,,0.27,Rainwise IP-100,2013-06-26 05:45:00,
2013-06-25 22:50:00,63.7,60.5,29.23,South,180,0.0,-999.0,90,0.00,,,0.27,Rainwise IP-100,2013-06-26 05:50:00,
2013-06-25 22:55:00,63.5,60.5,29.23,South,180,0.0,-999.0,90,0.00,,,0.27,Rainwise IP-100,2013-06-26 05:55:00,
2013-06-25 23:00:00,63.4,61.0,29.23,South,180,0.0,-999.0,91,0.00,,,0.27,Rainwise IP-100,2013-06-26 06:00:00,
2013-06-25 23:05:00,63.2,60.5,29.23,South,180,0.0,-999.0,91,0.00,,,0.27,Rainwise IP-100,2013-06-26 06:05:00,
2013-06-25 23:10:00,62.9,60.5,29.23,South,180,0.0,-999.0,91,0.00,,,0.27,Rainwise IP-100,2013-06-26 06:10:00,
2013-06-25 23:15:00,62.7,60.0,29.23,South,180,0.0,-999.0,92,0.00,,,0.27,Rainwise IP-100,2013-06-26 06:15:00,
2013-06-25 23:20:00,62.5,60.5,29.23,SSE,157,0.0,-999.0,93,0.00,,,0.27,Rainwise IP-100,2013-06-26 06:20:00,
2013-06-25 23:25:00,62.5,60.5,29.24,SSW,202,0.0,-999.0,93,0.00,,,0.27,Rainwise IP-100,2013-06-26 06:25:00,
2013-06-25 23:30:00,62.5,60.5,29.24,SSW,202,1.2,-999.0,93,0.00,,,0.27,Rainwise IP-100,2013-06-26 06:30:00,
2013-06-25 23:35:00,62.4,60.5,29.24,SW,225,0.0,-999.0,93,0.00,,,0.27,Rainwise IP-100,2013-06-26 06:35:00,
2013-06-25 23:40:00,62.5,60.5,29.24,SSW,202,0.0,-999.0,93,0.00,,,0.27,Rainwise IP-100,2013-06-26 06:40:00,
2013-06-25 23:45:00,62.6,60.5,29.24,SSW,202,0.0,-999.0,93,0.00,,,0.27,Rainwise IP-100,2013-06-26 06:45:00,
2013-06-25 23:50:00,62.6,60.5,29.24,SSW,202,0.0,-999.0,93,0.00,,,0.27,Rainwise IP-100,2013-06-26 06:50:00,
2013-06-25 23:55:00,62.5,60.5,29.24,SSW,202,0.0,-999.0,93,0.00,,,0.27,Rainwise IP-100,2013-06-26 06:55:00,